Regional Weather Roundup
Issued by NWS Pendleton, OR

Home | Current Version | Previous Version | Text Only | Print | Product List | Glossary On
Versions: 1 2 3 4 5 6 7 8 9 10 11 12 13 14 15 16 17 18 19 20 21 22 23 24 25 26 27 28 29 30 31 32 33 34 35 36 37 38 39 40 41 42 43 44 45 46 47 48 49 50
453
ASUS46 KPDT 100525
RWRPDT
PENDLETON REGIONAL WEATHER ROUNDUP
NATIONAL WEATHER SERVICE PENDLETON OREGON
900 PM PST TUE FEB 9 2016

NOTE: FAIR INDICATES FEW OR NO CLOUDS BELOW 12,000 FEET WITH NO
SIGNIFICANT WEATHER AND/OR OBSTRUCTIONS TO VISIBILITY.

# INDICATES UNOFFICIAL STATION AND DATA

WAZ520-100610-
EAST SLOPES OF WASHINGTON CASCADES

CITY            SKY/WX      TMP DP  RH  WIND    PRES   REMARKS
#BUMPING DAM    N/A         30  N/A N/A CALM    N/A
#CLE ELUM HS    N/A         30  27  88  CALM    30.19F
#CLE ELUM 2NW   N/A         29  29  100 CALM    N/A
#CLE ELUM LAKE  N/A         36  32  85  CALM    30.27F
#CLIFFDEL 2NW   N/A         32  30  92  N1      N/A
#GLENWOOD       N/A         31  29  92  CALM    30.33S
#MANASTASH CYN  N/A         30  26  85  CALM    30.19F
#NELSON         N/A         N/A N/A N/A CALM    30.22F
#NELSON 3SW     N/A         32  31  96  CALM    30.52F
#NILE           N/A         30  29  96  CALM    29.57F
#RONALD 2NW     N/A         35  N/A N/A N1      30.07F
#SNOWDEN        N/A         32  23  69  CALM    N/A
#TEANAWAY 4NE   N/A         31  30  96  CALM    N/A
#TROUT LAKE 1NE N/A         33  30  89  NW1     30.32S
#TROUT LAKE 1E  N/A         32  31  96  CALM    30.21F
$$

WAZ521-100610-
SIMCOE HIGHLANDS

CITY            SKY/WX      TMP DP  RH  WIND    PRES   REMARKS
#BICKLETON HS   N/A         35  32  89  CALM    N/A
#CENTERVILLE 1SWN/A         33  30  89  CALM    30.29F
#GOLDENDALE     N/A         38  34  85  CALM    N/A
#GOLDENDALE 1NE N/A         36  29  75  N3      N/A
#GOODNOE HILLS  N/A         42  34  73  E1      30.16F
#LYLE 6NE       N/A         40  37  89  S1      30.27F
$$

WAZ026-100610-
KITTITAS VALLEY

CITY            SKY/WX      TMP DP  RH  WIND    PRES   REMARKS
ELLENSBURG AP   PTCLDY      29  24  81  N3      30.26F
#ELLENSBURG CWU N/A         28  26  92  CALM    30.30S
#ELLENSBURG 3NE N/A         26  24  92  N2      30.25S
#ELLENSBURG     N/A         30  30  100 CALM    N/A
#ELLENSBURG 1E  N/A         26  N/A N/A CALM    N/A
#KITTITAS 4N    N/A         29  25  85  CALM    30.29F
#KITTITAS 3S    N/A         20  19  96  SE1     30.37S
#THORP 6N       N/A         34  31  89  CALM    30.32F
$$

WAZ027-100610-
YAKIMA VALLEY

CITY            SKY/WX      TMP DP  RH  WIND    PRES   REMARKS
SUNNYSIDE AP    PTCLDY      34  32  92  N5      30.28S
YAKIMA AIRPORT  PTCLDY      35  30  82  W6      30.28S
YAKIMA-VAGABOND CLEAR       37  31  79  W1      30.25S
#DONALD 2NE     N/A         43  28  55  N1      29.11S
#GRANDVIEW      N/A         40  33  76  CALM    30.33R
#MABTON         N/A         39  36  89  CALM    30.28S
#NACHES 2SW     N/A         38  34  85  NW1     30.27S
#OUTLOOK DOT    N/A         N/A N/A N/A NE1     N/A
#SELAH 8E       N/A         32  31  96  E2      N/A
#TERRACE HTS    N/A         36  32  85  CALM    30.29R
#TOPPENISH      N/A         40  35  82  CALM    30.22S
#WEST VALLEY    N/A         38  34  85  CALM    30.30R
#W YAKIMA       N/A         40  34  79  CALM    30.30F
#WHITE SWAN 5E  N/A         36  33  89  CALM    30.31S
#WILEY CITY 3W  N/A         37  30  75  CALM    30.23S
$$

WAZ028-100610-
LOWER COLUMBIA BASIN...WASHINGTON

CITY            SKY/WX      TMP DP  RH  WIND    PRES   REMARKS
PASCO           CLOUDY      33  30  89  CALM    30.29F
PROSSER AWOS    N/A         36  34  92  N3      30.32R
RICHLAND AWOS   MOCLDY      38  34  85  E3      30.29F
#BENTON CITY    N/A         39  34  82  NW1     30.21F
#CONNELL 5N     N/A         34  33  96  NE1     30.29F
#ELTOPIA 6NW    N/A         43  36  76  CALM    29.23F
#KAHLOTUS       N/A         39  36  89  SW1     30.31R
#KENNEWICK 3S   N/A         42  36  79  CALM    30.29F
#PATERSON       N/A         42  36  79  CALM    30.30R
#PROSSER        N/A         42  34  73  CALM    30.31R
#SAGEMOOR 2W    N/A         38  33  82  CALM    30.14F
#TOUCHET 2S     N/A         32  30  92  SE1     30.29S
#WEST PASCO     N/A         38  31  76  CALM    30.30F
$$

WAZ029-100610-
FOOTHILLS OF THE BLUES...WASHINGTON

CITY            SKY/WX      TMP DP  RH  WIND    PRES   REMARKS
WALLA WALLA AP  MOCLDY      36  33  89  NE6     30.26F
#CLYDE 6NW      N/A         33  31  92  CALM    30.33R
#DAYTON SCHOOL  N/A         35  29  78  CALM    30.26F
#LOWDEN 2SE     N/A         33  31  92  CALM    30.25F
#PLEASANT VIEW 1N/A         38  36  92  SW7     30.35R
#PRESCOTT       N/A         34  32  92  CALM    30.31S
#WHITMAN COLLEGEN/A         39  35  85  N2      30.37R
#WAITSBURG 5S   N/A         36  34  92  NW5     30.41R
#WAITSBURG 8N   N/A         32  17  53  CALM    30.12R
#WALLA WALLA U  N/A         38  34  85  CALM    30.33R
#WHITMAN MISSIONN/A         34  31  89  CALM    30.34R
$$

WAZ030-100610-
BLUE MOUNTAINS...WASHINGTON

CITY            SKY/WX      TMP DP  RH  WIND    PRES   REMARKS
#DIXIE 5SE      N/A         45  38  76  NE7     30.16F
#SKI BLUEWOOD   N/A         36  30  79  CALM    30.25S
$$

ORZ009-041-WAZ024-100610-
COLUMBIA RIVER GORGE

CITY            SKY/WX      TMP DP  RH  WIND    PRES   REMARKS
HOOD RIVER AP   MOCLDY      39  36  89  CALM    30.29S FOG
THE DALLES AP   MOCLDY      41  35  79  E5      30.29F
#ARLINGTON AIRPON/A         42  37  82  CALM    30.31S
#ARLINGTON HS   N/A         38  34  85  S1      30.23R
#CELILO DOT     N/A         43  33  67  S8      N/A
#LYLE           N/A         46  40  79  NE3     30.31F
#MARYHILL 2W    N/A         43  39  86  CALM    N/A
#MOSIER 1S      N/A         39  31  73  CALM    30.29S
#MURDOCK        N/A         42  38  86  CALM    30.27S
#RUFUS DOT      N/A         44  37  76  SE6     N/A

$$

ORZ510-100610-
NORTH CENTRAL OREGON

CITY            SKY/WX      TMP DP  RH  WIND    PRES   REMARKS
#CHENOWITH 1W   N/A         40  36  85  E7      N/A
#COW CYN RST AREN/A         45  37  73  N2      N/A
#DUFUR 9E       N/A         41  36  82  CALM    30.32F
#KENT DOT       N/A         40  30  67  N3      N/A
#MAUPIN SCHOOL  N/A         42  37  82  CALM    30.29F
#MORO SCHOOL    N/A         34  33  96  CALM    30.26S
#SHANIKO 5WSW   N/A         45  32  60  S8      N/A
#SHANIKO 4NW    N/A         45  37  73  SW1     30.23F
#TYGH VALLEY 2NEN/A         40  36  85  CALM    30.29F
#WAPANITIA AIRPON/A         37  35  92  CALM    30.32F
#WASCO DOT      N/A         34  31  89  CALM    N/A
#WASCO AIRPORT  N/A         38  33  82  E1      N/A
#WASCO 5NE      N/A         33  31  92  CALM    30.30F
$$

ORZ511-100610-
CENTRAL OREGON

CITY            SKY/WX      TMP DP  RH  WIND    PRES   REMARKS
BEND AIRPORT    PTCLDY      41  34  76  SE6     30.26R
MADRAS AIRPORT  MOCLDY      30  30  100 S5      30.27F FOG
REDMOND AIRPORT PTCLDY      33  31  92  S3      30.24F
#ASHWOOD SCHOOL N/A         37  35  92  CALM    30.20S
#BEND 6E        N/A         40  30  67  CALM    30.23F
#BEND 1SW       N/A         36  30  79  CALM    N/A
#BEND-KIM LN    N/A         40  33  76  CALM    30.22S
#LAKE BILLY CHINN/A         39  N/A N/A CALM    30.32S
#MADRAS         N/A         35  35  100 SE3     N/A
#POWELL BUTTE 3EN/A         47  34  60  SE8     N/A
#PRINEVILLE 3N  N/A         38  32  79  E1      30.30R
#WARM SPRINGS   N/A         34  32  92  CALM    30.24S

$$


ORZ509-100610-
EAST SLOPES OF OREGON CASCADES

CITY            SKY/WX      TMP DP  RH  WIND    PRES   REMARKS
SISTERS AWOS    N/A         36  32  85  CALM    30.20F
#BLUE BOX PASS  N/A         45  N/A N/A SE1     N/A
#BLACK BUTTE RNCN/A         34  32  92  CALM    30.31S
#CAMP SHERMAN   N/A         32  29  89  CALM    30.44R
#LA PINE 4NW    N/A         30  24  78  CALM    30.37S
#LAVA BUTTE DOT N/A         37  26  64  CALM    N/A
#SISTERS AIRPOR N/A         34  34  100 N1      30.17S
#SISTERS ODOT   N/A         35  N/A N/A CALM    N/A
#SISTERS 1NW    N/A         35  30  82  N3      N/A
#SISTERS 3N     N/A         33  26  75  CALM    30.24S
#SUNRIVER       N/A         33  28  82  CALM    30.35S
#SUTTLE LK DOT  N/A         29  29  100 W15G32  N/A    WCI 18
#TUMALO 3W      N/A         44  38  79  CALM    30.14S
#WANOGA BUTTE D N/A         45  25  45  CALM    N/A

$$

ORZ044-100610-
LOWER COLUMBIA BASIN...OREGON

CITY            SKY/WX      TMP DP  RH  WIND    PRES   REMARKS
HERMISTON       CLOUDY      34  31  89  CALM    30.27F
#BOARDMAN SCHOOLN/A         34  31  89  CALM    30.30S
#BOARDMAN 8SW   N/A         37  33  85  NE1     30.30F
#ECHO 8SW       N/A         34  30  85  SW1     30.29F
#I-84 EX 198 DOTN/A         41  34  76  NE5     N/A
#IONE SCHOOL    N/A         35  21  56  CALM    30.24S
#IRRIGON 4NW    N/A         37  37  100 CALM    N/A
#UMATILLA SCHOOLN/A         32  32  100 CALM    30.33R
#UMATILLA       N/A         37  31  79  CALM    30.24F
$$

ORZ507-100610-
NORTHERN FOOTHILLS OF THE BLUES

CITY            SKY/WX      TMP DP  RH  WIND    PRES   REMARKS
PENDLETON AIRPT MOCLDY      34  32  92  E3      30.26R
#ADAMS 3WNW     N/A         34  32  92  E1      30.32S
#ATHENA         N/A         34  33  96  CALM    30.36R
#CAYUSE         N/A         36  33  89  CALM    30.32R
#HELIX SCHOOL   N/A         34  32  92  CALM    30.31R
#HELIX 3N       N/A         36  33  89  N3      30.20F
#HOLDMAN 5SE    N/A         33  31  92  SE2     30.24S
#HOLDMAN 6E     N/A         36  33  89  CALM    30.11S
#M-F GROVE ELEM N/A         36  31  82  CALM    30.27R
#M-FREEWATER 5SEN/A         36  33  89  CALM    30.28R
#PENDLETON DNTN N/A         36  26  67  E3      30.31R
#PDT AQUATIC CTRN/A         36  27  69  E3      30.28S
#PDT SUNRIDGE   N/A         32  30  92  NE5     30.29R
#PENDLETON 7NW  N/A         34  30  85  E6      N/A
#PILOT ROCK     N/A         36  28  72  E5      30.25R
#TUTUILLA       N/A         32  30  92  CALM    30.31R
#UMAPINE 2E     N/A         35  33  92  CALM    30.26R
#WESTON SCHOOL  N/A         37  32  82  SE1     30.23R

$$

ORZ508-100610-
SOUTHERN FOOTHILLS OF THE BLUES

CITY            SKY/WX      TMP DP  RH  WIND    PRES   REMARKS
LEXINGTON       PTCLDY      36  34  92  E6      30.28F
#CONDON SCHOOL  N/A         40  36  85  CALM    30.19R
#CONDON 5W      N/A         44  33  65  N2      30.21S
#FOSSIL SCHOOL  N/A         36  34  92  CALM    30.18S
#HEPPNER EOC    N/A         40  35  82  SE2     30.24F
#HEPPNER 4NE    N/A         41  35  79  SE2     30.29F
#LEXINGTON 2SE  N/A         36  31  82  CALM    30.22S
#MIKKALO        N/A         37  33  85  E2      30.34F
#OLEX 4N        N/A         38  35  89  S3      30.24S
#RUGGS 5NE      N/A         39  34  82  CALM    30.40S
#RUGGS 2SW      N/A         41  34  76  SW7     30.32F

$$

ORZ502-503-100610-
BLUE MOUNTAINS

CITY            SKY/WX      TMP DP  RH  WIND    PRES   REMARKS
MEACHAM         MOCLDY      39  29  67  CALM    30.26F
#BATTLE MTN DOT N/A         43  32  65  S8      N/A
#HEPPNER 15SE   N/A         36  28  72  N5      30.30S
#LADD CYN SMT   N/A         31  26  81  SE22    N/A    WCI 18
#LADD CREEK ODOTN/A         35  29  78  SW10    N/A
#LONG CREEK HS  N/A         36  33  89  CALM    N/A
#N POWDER DOT   N/A         31  28  88  SW6     N/A
#PIKES PEAK     N/A         45  31  58  CALM    27.99S
#TOLLGATE       N/A         41  29  62  CALM    30.11S
#TROY SCHOOL    N/A         36  32  85  W1      30.24S
#UKIAH          N/A         32  29  89  CALM    30.29R
#WESTON 4E      N/A         46  32  58  W1      30.24R
$$

ORZ505-100610-
JOHN DAY BASIN

CITY            SKY/WX      TMP DP  RH  WIND    PRES   REMARKS
JOHN DAY        MOCLDY      47  30  51  SE15    30.31R WCI 41
#DAYVILLE SCHOOLN/A         51  31  46  SE8     30.22S
#MITCHELL       N/A         39  35  85  CALM    30.39S
#MITCHELL 8NW   N/A         45  34  65  SE1     30.47R
#MONUMENT HS    N/A         44  30  58  E5      30.21R
#MT. VERNON 5SE N/A         46  29  51  SW7     30.24R
#SPRAY SCHOOL   N/A         39  N/A N/A CALM    N/A
#WINLOCK        N/A         44  31  60  CALM    30.21R
$$

ORZ506-100610-
OCHOCO AND JOHN DAY HIGHLANDS

CITY            SKY/WX      TMP DP  RH  WIND    PRES   REMARKS
#HORSE RIDGE DO N/A         36  31  82  SE9     N/A
#PAULINA SCHOOL N/A         50  37  61  CALM    30.24S
#PINE MTN OBS   N/A         47  27  45  S8      N/A
#PRAIRIE CITY   N/A         37  28  70  CALM    30.26S
#SENECA         N/A         31  N/A N/A NW2     N/A
#SENECA 9NW     N/A         26  24  92  CALM    30.48R
$$

ORZ049-100610-
GRANDE RONDE VALLEY

CITY            SKY/WX      TMP DP  RH  WIND    PRES   REMARKS
LA GRANDE       MOCLDY      37  27  67  S28G36  30.32F WCI 25
#COVE           N/A         33  31  92  CALM    30.34F
#COVE SCHOOL    N/A         32  29  89  CALM    30.32F
#COVE 6NW       N/A         34  29  82  SE3     30.23F
#ELGIN 3N       N/A         36  25  64  CALM    30.29F
#ELGIN 1E       N/A         36  29  75  SE1     N/A
#IMBLER SCHOOL  N/A         35  29  78  S10     30.29S
#ISLAND CITY 4N N/A         46  43  89  CALM    30.15F
#LADD CYN DOT   N/A         38  31  76  S23     N/A    WCI 27
#UNION 1S       N/A         34  29  82  S22G33  30.33S WCI 22
$$

ORZ050-100610-
WALLOWA COUNTY

CITY            SKY/WX      TMP DP  RH  WIND    PRES   REMARKS
JOSEPH AIRPORT  CLOUDY      27  27  100 CALM    30.32F
#ENTERPRISE AP  N/A         29  27  92  CALM    30.22F
#ENTERPRISE HS  N/A         30  29  96  CALM    30.31F
#IMNAHA SCHOOL  N/A         46  33  60  SW7     30.29R
#JOSEPH 3N      N/A         30  27  88  CALM    30.30F
#JOSEPH 3W      N/A         27  23  85  CALM    30.10F
#LOSTINE        N/A         29  27  92  CALM    30.29F
#MT HOWARD 8000 N/A         43  10  25  SW15    30.34S WCI 36
#PROMISE 1S     N/A         32  28  85  N3      30.51R
#WALLOWA SCHOOL N/A         31  30  96  CALM    30.30S



$$



USA.gov is the U.S. government's official web portal to all federal, state and local government web resources and services.